Regional Weather Roundup
Issued by NWS

Home | Current Version | Previous Version | Text Only | Print | Product List | Glossary Off
Versions: 1 2 3 4 5 6 7 8 9 10 11 12 13 14 15 16 17 18 19 20 21 22 23 24 25 26 27 28 29 30 31 32 33 34 35 36 37 38 39 40 41 42 43 44 45 46 47 48 49 50

000
ASUS43 KFSD 300402
RWRSD

WEATHER ROUNDUP FOR SOUTH DAKOTA
NATIONAL WEATHER SERVICE SIOUX FALLS SD
1100 PM CDT MON MAY 29 2017

NOTE: "FAIR" INDICATES FEW OR NO CLOUDS BELOW 12,000 FEET WITH NO
SIGNIFICANT WEATHER AND/OR OBSTRUCTIONS TO VISIBILITY.


SDZ001>005-009-010-012>017-300500-
NORTHWEST AND NORTH CENTRAL SOUTH DAKOTA

CITY           SKY/WX    TMP DP  RH WIND       PRES   REMARKS
BUFFALO          N/A     55  29  36 N9        30.04R
FAITH            N/A     50  32  50 N8        30.07R
MOBRIDGE       CLEAR     47  35  63 CALM      30.00R
$$

SDZ012>016-024>037-041>051-057-063-072>074-300500-
SOUTHWEST AND SOUTH CENTRAL SOUTH DAKOTA

CITY           SKY/WX    TMP DP  RH WIND       PRES   REMARKS
RAPID CTY ARPT CLEAR     45  29  53 NW10      30.12R
PIERRE         CLEAR     47  35  63 N6        30.03R
CUSTER         CLEAR     48  22  35 W5        30.20R
ELLSWORTH AFB  CLEAR     48  30  50 NW8       30.12R
PHILIP         CLEAR     47  34  60 NW6       30.08R
PINE RIDGE     CLEAR     48  41  76 E3        30.14R
SPEARFISH      FAIR      45  32  61 SW5       30.15R
WINNER         FAIR      55  37  50 NW6       30.06R
$$

SDZ004>011-016>023-039-040-300500-
NORTHEAST SOUTH DAKOTA

CITY           SKY/WX    TMP DP  RH WIND       PRES   REMARKS
ABERDEEN       CLOUDY    56  38  50 W6        29.98R
WATERTOWN      CLOUDY    52  42  69 W5        29.97R
BROOKINGS      CLEAR     50  43  77 W6        29.99R
SISSETON         N/A     55  44  66 NW10      29.93S
$$

SDZ017-020-022-023-036>040-048>070-300500-
SOUTHEAST SOUTH DAKOTA

CITY           SKY/WX    TMP DP  RH WIND       PRES   REMARKS
SIOUX FALLS    CLEAR     52  45  77 W3        30.00R
HURON          CLEAR     46  37  71 W8        30.00R
CHAMBERLAIN    PTCLDY    54  38  55 NW5       30.04R
MITCHELL       PTCLDY    56  44  64 W3        30.02R
YANKTON        CLEAR     55  44  66 CALM      30.02R
$$

ABBREVIATIONS USED IN REMARKS
   TC - TEMPERATURE IN CELSIUS
  WCI - WIND CHILL INDEX
   HX - HEAT INDEX
  VSB - VISIBILITY




USA.gov is the U.S. government's official web portal to all federal, state and local government web resources and services.